www.pogodaiklimat.ru

Погода и климат >> Архив погоды >> Россия >> Якутия >> Томмот


ПОГОДА в Томмоте

  • Прогноз погоды в Томмоте
  • Монитор погоды в Томмоте

АРХИВ ПОГОДЫ в Томмоте

Время (UTC), дата Ветер
(напр.,м/с)
 
Видим.   Явления Облачность Т
(С)
Тd
(С)
f
(%)
Тe
(С)
Тes
(С)
Комфортность P
(гПа)
Po
(гПа)
Тmin
(С)
Tmax
(С)
R
(мм)
R24
(мм)
S
(см)
03 10.07 С 1 50 км 10/10 600 м
[Cb cap]
+20.5 +17.4 82 +25 +25 комфорт 1005.8 973.5
06 10.07 СЗ 2 50 км 10/10 600 м
[Cb cap]
+22.5 +17.5 73 +27 +27 душно 1005.8 973.7
09 10.07 С 1 50 км 10/8 600 м
[Cb cap Ci sp]
+22.4 +17.6 74 +27 +28 душно 1005.9 973.8
12 10.07 В 1 20 км {гроза, ливн. осадки} 10/6 600 м
[Cb cap Cc]
+20.5 +19.4 93 +26 +26 душно 1006.9 974.5 +23.5 1
15 10.07 штиль 0 20 км 10/5 600 м
[Cb cap Ac As Ci sp]
+17.1 +16.4 96 +17 +17 1008.4 975.6
18 10.07 штиль 0 20 км 6/0 2000 м
[Ac trans Ci sp]
+15.4 +15.1 98 +15 +15 1009.5 976.4
21 10.07 С 1 500 м туман ?/? +14.8 +14.4 97 +15 +15 1010.8 977.6
00 11.07 СВ 1 50 км {туман} 3/3 600 м
[Cu med, cong Ci fib]
+19.8 +17.0 84 +23 +30 комфорт 1009.9 977.4 +14.6
03 11.07 СЗ 1 50 км 8/8 600 м
[Cb cap]
+26.2 +18.2 61 +31 +34 очень
душно
1008.5 976.8
06 11.07 Ю 2 50 км гроза без осадков 8/6 600 м
[Cb cap Cs]
+26.7 +17.1 56 +31 +35 душно 1007.1 975.4
09 11.07 В 3
{10}
50 км 9/9 600 м
[Cb cap]
+28.4 +13.7 40 +30 +30 жарко 1006.9 975.3
12 11.07 штиль 0 50 км {гроза} 4/3 600 м
[Cb cap Ci fib]
+21.9 +18.9 83 +27 +27 душно 1008.8 976.5 +33.6
15 11.07 штиль 0 20 км 3/0
[Ci fib]
+16.0 +15.7 98 +16 +16 1010.3 977.3
18 11.07 штиль 0 4000 м дымка 4/0
[Ci fib]
+12.8 +12.4 97 +12 +12 1010.8 977.4
21 11.07 штиль 0 500 м туман ?/? +14.4 +14.0 97 +14 +14 1011.1 977.8
00 12.07 ЮЗ 2 50 км {туман} 3/0
[Ci sp]
+19.6 +16.1 80 +22 +30 комфорт 1009.7 977.2 +12.8
03 12.07 СВ 1 20 км слаб. ливневой дождь 9/9 600 м
[Cb cap]
+21.4 +19.8 91 +26 +28 душно 1008.6 976.3
06 12.07 С 2 50 км в посл. час гроза {ливн. осадки} 8/4 600 м
[Cb cap Ci sp]
+21.3 +18.9 86 +26 +32 душно 1007.3 975.0
09 12.07 СВ 2 50 км гроза без осадков 10/8 600 м
[Cb cap Ci sp]
+26.2 +17.1 57 +30 +31 душно 1005.9 974.1
12 12.07 С 1 50 км {гроза, ливн. осадки} 9/3 1000 м
[Sc Ac trans Ci sp]
+22.1 +19.1 83 +28 +28 душно 1006.8 974.6 +27.3 2
15 12.07 В 1 20 км 4/0
[Ci fib]
+16.8 +14.4 86 +18 +18 1007.6 974.8
21 12.07 штиль 0 500 м туман ?/? +14.8 +14.8 100 +14 +14 1008.8 975.7
00 13.07 штиль 0 20 км в посл. час туман 4/0
[Ci fib]
+16.7 +16.2 97 +17 +26 1008.3 975.5 +13.4
03 13.07 ЮЗ 1 50 км 3/3 600 м
[Cu med, cong]
+27.1 +18.3 59 +32 +43 очень
душно
1005.3 973.8
06 13.07 В 2 50 км 6/3 600 м
[Cu med, cong Ci sp]
+30.3 +14.6 38 +32 +39 жарко 1002.4 971.2
09 13.07 ЮЗ 1 50 км в посл. час гроза 10/6 600 м
[Cb cap Ci sp]
+24.1 +19.3 75 +29 +30 душно 1002.8 971.0
12 13.07 ЮВ 1 20 км гроза без осадков {ливн. осадки} 10/8 600 м
[Cb cap Ci sp]
+22.8 +17.8 73 +28 +28 душно 1004.3 972.2 +31.5 0.3
15 13.07 ЮВ 2 20 км гроза без осадков {ливн. осадки} 8/8 600 м
[Cb cap]
+18.2 +17.2 94 +19 +19 1005.1 972.5
18 13.07 штиль 0 20 км в посл. час гроза {ливн. осадки} 3/0
[Ci sp]
+16.3 +16.0 98 +16 +16 1006.1 973.2
21 13.07 штиль 0 500 м туман ?/? +15.2 +14.9 98 +15 +15 1006.6 973.6
00 14.07 штиль 0 50 км {туман} 10/10 600 м
[Cb cap]
+18.4 +17.1 92 +19 +19 1006.0 973.5 +13.1 2
03 14.07 С 2 50 км 9/8 600 м
[Cu med, cong Ci fib]
+21.8 +18.0 79 +26 +29 душно 1005.3 973.1
06 14.07 З 1 50 км 10/4 600 м
[Cb cap Ci sp]
+27.0 +17.3 55 +31 +37 душно 1003.1 971.5
09 14.07 Ю 1
{13}
2000 м гроза, ливневой дождь 10/10 600 м
[Cb cap]
+19.0 +17.2 89 +22 +22 комфорт 1004.8 972.3
12 14.07 В 1 20 км в посл. час гроза {ливн. осадки} 10/5 600 м
[Cb cap Ci]
+17.8 +17.5 98 +19 +19 1005.5 972.9 +27.9 10
15 14.07 Ю 1 500 м туман ?/? +14.6 +14.6 100 +15 +15 1007.0 973.9
18 14.07 штиль 0 500 м туман ?/? +14.5 +14.5 100 +14 +14 1007.9 974.7
21 14.07 штиль 0 500 м туман ?/? +13.7 +13.7 100 +13 +13 1008.6 975.3
00 15.07 штиль 0 500 м туман ?/? +15.6 +15.3 98 +15 +15 1008.8 975.7 +13.3
03 15.07 З 1 50 км {туман} 3/3 600 м
[Cu med, cong]
+22.6 +16.7 69 +27 +38 душно 1007.4 975.3
06 15.07 З 1 50 км гроза без осадков 8/8 600 м
[Cb cap]
+26.0 +17.4 59 +30 +33 душно 1006.5 974.7
09 15.07 штиль 0 50 км {гроза} 8/3 600 м
[Cb cap Ci fib]
+28.6 +18.3 54 +33 +36 очень
душно
1005.6 974.2
12 15.07 штиль 0 50 км {гроза} 10/3 1000 м
[Sc diur, vesp Ci sp]
+22.7 +20.1 85 +29 +29 очень
душно
1007.9 975.7 +31.0
15 15.07 штиль 0 20 км 9/9 600 м
[Cb cap]
+17.3 +16.0 92 +17 +17 1009.6 976.8
18 15.07 В 1 20 км 4/3 600 м
[Cb cap Ci fib]
+16.5 +15.6 94 +17 +17 1009.8 977.0
21 15.07 С 1 50 км 9/0
[Ac trans Cc]
+15.8 +15.1 96 +16 +17 1010.8 977.7
00 16.07 СЗ 1 50 км 9/6 1000 м
[Sc Cc]
+19.5 +16.3 82 +23 +26 комфорт 1011.1 978.5 +13.8
03 16.07 СЗ 1 50 км 8/3 600 м
[Cu hum Cc]
+22.9 +16.0 65 +27 +37 душно 1010.0 977.7
06 16.07 СЗ 1 50 км 10/3 600 м
[Cu hum Ac trans Ci fib]
+26.8 +14.7 47 +29 +34 жарко 1007.8 976.1
09 16.07 СЗ 1 50 км 10/3 600 м
[Cu hum Ci sp]
+26.8 +13.9 45 +29 +31 жарко 1007.1 975.4
12 16.07 СЗ 1 10 км дым 8/0
[Ci fib]
+21.7 +10.4 49 +23 +23 комфорт 1008.8 976.4 +28.1
15 16.07 СВ 1 10 км дым 10/0
[Ci sp]
+10.4 +9.2 92 +10 +10 1012.6 978.8
18 16.07 С 2 10 км дым 6/0
[Ci sp]
+7.3 +6.2 93 +5 +5 1013.1 978.8
21 16.07 С 1 10 км дым 10/3 1000 м
[Sc Ci sp]
+5.5 +4.1 91 +4 +5 1013.5 980.0
00 17.07 С 1 20 км ясно +15.2 +8.5 64 +16 +25 1012.3 979.0 +4.0

 

Местоположение метеостанции Томмот (Якутия, Россия): широта 58.97 долгота 126.20 высота над уровнем моря 284 м.

В архиве по умолчанию представлена погода в Томмоте за последнюю неделю. Архивные данные за месяц целиком и за предыдущие месяцы, начиная с января 2011 года, Вы можете получить, выбрав интересующий диапазон дат из раскрывающегося списка и нажав кнопку "Ввод!".


*Определитесь, кто Вы:
робот инопланетянин человек

Внимание! Время в таблицах - всемирное. Для получения местного времени необходимо прибавить поправку, которая равна 9 ч.

Смотрите также архив погоды в соседних городах и на ближайших метеорологических станциях:

Погода в Алдане (Якутия, Россия) (66 км)
Погода в Буяге (Якутия, Россия) (90 км)
Погода в Угино (Якутия, Россия) (138 км)
Погода в Канкунском (Якутия, Россия) (148 км)
Погода в Суон-Тите (Якутия, Россия) (176 км)
Погода в Исити (Якутия, Россия) (212 км)
Погода в Нерюнгри (Якутия, Россия) (251 км)
Погода в Учуре (Якутия, Россия) (255 км)
Погода в Джикимде (Якутия, Россия) (258 км)
Погода в Тегюльте (Якутия, Россия) (271 км)

Пояснения к столбцам:

Ветер - указаны скорость ветра в м/с - средняя за 10 мин, порывы в срок и между сроками (в фигурных скобках) и направление, откуда дует ветер: С - северный, СВ - северо-восточный, В - восточный, ЮВ - юго-восточный, Ю - южный, ЮЗ - юго-западный, З - западный, СЗ - северо-западный.
Видимость - горизонтальная дальность видимости в метрах или километрах. При видимости от 1 до 10 км при отсутствии осадков обычно наблюдается дымка, при ухудшении видимости до 1 км и менее - туман. В сухую погоду видимость может ухудшаться дымом, пылью или мглою.
Явления - указаны атмосферные явления, наблюдавшиеся в срок или в последний час перед сроком; фигурными скобками обозначены явления, наблюдавшиеся между сроками (за 1-3 часа до срока); квадратными скобками обозначены град или гололедные отложения с указанием их диаметра в мм.
Облачность - указаны через наклонную черту общая и нижняя облачность в баллах и высота нижней границы облаков в метрах; квадратными скобками обозначены формы облаков: Ci - перистые, Cs - перисто-слоистые, Cc - перисто-кучевые, Ac - высококучевые, As - высокослоистые, Sc - слоисто-кучевые, Ns - слоисто-дождевые, Cu - кучевые, Cb - кучево-дождевые. Подробнее классификацию облаков см. в Атласе облаков (PDF).
T - Температура воздуха - температура, измеренная на высоте 2 м над землей.
Td - Температура точки росы - температура, при понижении до которой содержащийся в воздухе водяной пар достигнет насыщения.
f - Относительная влажность воздуха - влажноcть воздуха, измеренная на высоте 2 м над землей.
Te - Эффективная температура - температура, которую ощущает одетый по сезону человек в тени. Характеристика душности погоды. При расчете учитывается влияние влажности воздуха и скорости ветра на теплоощущения человека.
Tes - Эффективная температура на солнце - температура, которую ощущает человек, с поправкой на солнечный нагрев. Характеристика знойности погоды. Зависит от высоты солнца над горизонтом, облачности и скорости ветра. Ночью, в пасмурную погоду, а также при ветре 12 м/с и более поправка равна нулю.
P - Атмосферное давление - приведенное к уровню моря атмосферное давление.
Po - Атмосферное давление - измеренное на уровне метеостанции атмосферное давление.
Tmin - Минимальная температура - минимум температуры воздуха на высоте 2 м над землей.
Tmax - Максимальная температура - максимум температуры воздуха на высоте 2 м над землей.
R - Количество осадков - Количество выпавших осадков за период времени, мм. При наведении курсора мыши на число - период времени, за который выпало указанное количество осадков.
R24 - Количество осадков - Количество выпавших осадков за 24 часа, мм.
S - Снежный покров - Высота снежного покрова, см. При наведении курсора мыши на число - состояние снежного покрова и степень покрытия местности в баллах.